Year,Month,Day,Hour,Minute,Value (Times are PST for barometer in hPa)
2011,11,22,00,00,992.96
2011,11,22,00,01,992.85
2011,11,22,00,02,992.69
2011,11,22,00,03,992.75
2011,11,22,00,04,992.68
2011,11,22,00,05,992.59
2011,11,22,00,06,992.65
2011,11,22,00,07,992.64
2011,11,22,00,08,992.58
2011,11,22,00,09,992.61
2011,11,22,00,10,992.55
2011,11,22,00,11,992.54
2011,11,22,00,12,992.47
2011,11,22,00,13,992.40
2011,11,22,00,14,992.25
2011,11,22,00,15,992.27
2011,11,22,00,16,992.23
2011,11,22,00,17,992.41
2011,11,22,00,18,992.28
2011,11,22,00,19,992.30
2011,11,22,00,20,992.25
2011,11,22,00,21,992.25
2011,11,22,00,22,992.21
2011,11,22,00,23,992.20
2011,11,22,00,24,992.11
2011,11,22,00,25,992.11
2011,11,22,00,26,992.07
2011,11,22,00,27,992.02
2011,11,22,00,28,992.08
2011,11,22,00,29,992.04
2011,11,22,00,30,992.01
2011,11,22,00,31,992.03
2011,11,22,00,32,991.98
2011,11,22,00,33,991.97
2011,11,22,00,34,991.90
2011,11,22,00,35,991.84
2011,11,22,00,36,991.88
2011,11,22,00,37,992.03
2011,11,22,00,38,991.87
2011,11,22,00,39,991.93
2011,11,22,00,40,991.74
2011,11,22,00,41,991.75
2011,11,22,00,42,991.82
2011,11,22,00,43,991.87
2011,11,22,00,44,991.82
2011,11,22,00,45,991.63
2011,11,22,00,46,991.57
2011,11,22,00,47,991.64
2011,11,22,00,48,991.69
2011,11,22,00,49,991.53
2011,11,22,00,50,991.59
2011,11,22,00,51,991.53
2011,11,22,00,52,991.53
2011,11,22,00,53,991.57
2011,11,22,00,54,991.53
2011,11,22,00,55,991.53
2011,11,22,00,56,991.53
2011,11,22,00,57,991.47
2011,11,22,00,58,991.49
2011,11,22,00,59,991.40
2011,11,22,01,00,991.43
2011,11,22,01,01,991.37
2011,11,22,01,02,991.37
2011,11,22,01,03,991.40
2011,11,22,01,04,991.30
2011,11,22,01,05,991.30
2011,11,22,01,06,991.22
2011,11,22,01,07,991.17
2011,11,22,01,08,991.32
2011,11,22,01,09,991.24
2011,11,22,01,10,991.29
2011,11,22,01,11,991.16
2011,11,22,01,12,991.16
2011,11,22,01,13,991.23
2011,11,22,01,14,991.26
2011,11,22,01,15,991.21
2011,11,22,01,16,991.04
2011,11,22,01,17,991.16
2011,11,22,01,18,991.22
2011,11,22,01,19,991.05
2011,11,22,01,20,990.99
2011,11,22,01,21,990.99
2011,11,22,01,22,990.99
2011,11,22,01,23,990.99
2011,11,22,01,24,990.95
2011,11,22,01,25,990.73
2011,11,22,01,26,990.98
2011,11,22,01,27,990.93
2011,11,22,01,28,990.85
2011,11,22,01,29,990.73
2011,11,22,01,30,990.82
2011,11,22,01,31,990.77
2011,11,22,01,32,990.92
2011,11,22,01,33,990.71
2011,11,22,01,34,990.60
2011,11,22,01,35,990.73
2011,11,22,01,36,990.88
2011,11,22,01,37,990.67
2011,11,22,01,38,990.53
2011,11,22,01,42,990.61
2011,11,22,01,43,990.55
2011,11,22,01,44,990.54
2011,11,22,01,45,990.49
2011,11,22,01,46,990.53
2011,11,22,01,47,990.71
2011,11,22,01,48,990.48
2011,11,22,01,49,990.28
2011,11,22,01,50,990.35
2011,11,22,01,51,990.28
2011,11,22,01,54,990.31
2011,11,22,01,55,990.16
2011,11,22,01,56,990.40
2011,11,22,01,57,990.21
2011,11,22,01,58,990.21
2011,11,22,01,59,990.17
2011,11,22,02,00,990.02
2011,11,22,02,01,990.15
2011,11,22,02,02,990.08
2011,11,22,02,03,989.99
2011,11,22,02,04,990.11
2011,11,22,02,05,990.09
2011,11,22,02,06,990.17
2011,11,22,02,07,989.92
2011,11,22,02,08,990.08
2011,11,22,02,09,990.10
2011,11,22,02,10,989.87
2011,11,22,02,11,989.77
2011,11,22,02,12,989.71
2011,11,22,02,13,989.78
2011,11,22,02,14,989.91
2011,11,22,02,15,989.83
2011,11,22,02,16,989.65
2011,11,22,02,17,989.79
2011,11,22,02,18,989.65
2011,11,22,02,19,989.79
2011,11,22,02,20,989.63
2011,11,22,02,21,989.44
2011,11,22,02,22,989.38
2011,11,22,02,23,989.49
2011,11,22,02,24,989.65
2011,11,22,02,25,989.37
2011,11,22,02,26,989.38
2011,11,22,02,27,989.56
2011,11,22,02,28,989.41
2011,11,22,02,29,989.53
2011,11,22,02,30,989.41
2011,11,22,02,31,989.53
2011,11,22,02,32,989.41
2011,11,22,02,33,989.50
2011,11,22,02,34,989.45
2011,11,22,02,35,989.16
2011,11,22,02,36,989.20
2011,11,22,02,37,989.17
2011,11,22,02,38,989.33
2011,11,22,02,39,989.33
2011,11,22,02,40,989.01
2011,11,22,02,41,989.15
2011,11,22,02,42,989.10
2011,11,22,02,43,989.03
2011,11,22,02,44,989.03
2011,11,22,02,45,988.90
2011,11,22,02,46,989.00
2011,11,22,02,47,989.10
2011,11,22,02,48,989.06
2011,11,22,02,49,988.99
2011,11,22,02,50,988.87
2011,11,22,02,51,989.07
2011,11,22,02,52,989.23
2011,11,22,02,53,989.22
2011,11,22,02,54,989.03
2011,11,22,02,55,989.00
2011,11,22,02,56,989.13
2011,11,22,02,57,989.16
2011,11,22,02,58,989.16
2011,11,22,02,59,989.27
2011,11,22,03,00,989.13
2011,11,22,03,01,989.20
2011,11,22,03,02,989.25
2011,11,22,03,03,988.97
2011,11,22,03,04,989.11
2011,11,22,03,05,989.27
2011,11,22,03,06,989.31
2011,11,22,03,07,989.03
2011,11,22,03,08,989.13
2011,11,22,03,09,989.16
2011,11,22,03,10,989.19
2011,11,22,03,11,989.05
2011,11,22,03,12,988.88
2011,11,22,03,13,989.03
2011,11,22,03,14,988.93
2011,11,22,03,15,988.99
2011,11,22,03,16,988.90
2011,11,22,03,17,988.99
2011,11,22,03,18,988.79
2011,11,22,03,19,988.81
2011,11,22,03,20,989.13
2011,11,22,03,21,989.09
2011,11,22,03,22,988.93
2011,11,22,03,23,988.92
2011,11,22,03,24,988.59
2011,11,22,03,25,988.70
2011,11,22,03,26,988.79
2011,11,22,03,27,988.76
2011,11,22,03,28,988.62
2011,11,22,03,29,988.55
2011,11,22,03,30,988.61
2011,11,22,03,31,988.46
2011,11,22,03,32,988.55
2011,11,22,03,33,988.52
2011,11,22,03,34,988.62
2011,11,22,03,35,988.69
2011,11,22,03,36,988.66
2011,11,22,03,37,988.77
2011,11,22,03,38,988.87
2011,11,22,03,39,989.17
2011,11,22,03,40,989.50
2011,11,22,03,41,989.54
2011,11,22,03,42,989.57
2011,11,22,03,43,989.51
2011,11,22,03,44,989.75
2011,11,22,03,45,989.92
2011,11,22,03,46,990.18
2011,11,22,03,47,990.18
2011,11,22,03,48,990.19
2011,11,22,03,49,990.38
2011,11,22,03,50,990.31
2011,11,22,03,51,989.97
2011,11,22,03,52,989.82
2011,11,22,03,53,989.99
2011,11,22,03,54,989.54
2011,11,22,03,55,989.54
2011,11,22,03,56,989.64
2011,11,22,03,57,989.71
2011,11,22,03,58,989.68
2011,11,22,03,59,989.81
2011,11,22,04,00,989.85
2011,11,22,04,01,989.98
2011,11,22,04,02,990.02
2011,11,22,04,03,990.24
2011,11,22,04,04,990.15
2011,11,22,04,05,990.14
2011,11,22,04,06,990.04
2011,11,22,04,07,990.09
2011,11,22,04,08,990.26
2011,11,22,04,09,990.35
2011,11,22,04,10,990.32
2011,11,22,04,11,990.32
2011,11,22,04,12,990.32
2011,11,22,04,13,990.36
2011,11,22,04,14,990.45
2011,11,22,04,15,990.42
2011,11,22,04,16,990.49
2011,11,22,04,17,990.50
2011,11,22,04,18,990.69
2011,11,22,04,19,990.70
2011,11,22,04,20,990.76
2011,11,22,04,21,990.82
2011,11,22,04,22,990.82
2011,11,22,04,23,990.89
2011,11,22,04,24,990.89
2011,11,22,04,25,990.89
2011,11,22,04,26,990.92
2011,11,22,04,27,990.79
2011,11,22,04,28,990.90
2011,11,22,04,29,991.07
2011,11,22,04,30,991.14
2011,11,22,04,31,991.33
2011,11,22,04,32,991.38
2011,11,22,04,33,991.47
2011,11,22,04,34,991.50
2011,11,22,04,35,991.51
2011,11,22,04,36,991.60
2011,11,22,04,37,991.53
2011,11,22,04,38,991.60
2011,11,22,04,39,991.55
2011,11,22,04,40,991.74
2011,11,22,04,41,991.69
2011,11,22,04,42,991.48
2011,11,22,04,43,991.76
2011,11,22,04,44,991.57
2011,11,22,04,45,991.60
2011,11,22,04,46,991.70
2011,11,22,04,47,991.67
2011,11,22,04,48,991.64
2011,11,22,04,49,991.78
2011,11,22,04,50,991.91
2011,11,22,04,51,991.94
2011,11,22,04,52,992.00
2011,11,22,04,53,991.81
2011,11,22,04,54,991.91
2011,11,22,04,55,991.94
2011,11,22,04,56,992.01
2011,11,22,04,57,992.04
2011,11,22,04,58,992.08
2011,11,22,04,59,992.14
2011,11,22,05,00,992.25
2011,11,22,05,01,992.35
2011,11,22,05,02,992.34
2011,11,22,05,03,992.19
2011,11,22,05,04,992.28
2011,11,22,05,05,992.31
2011,11,22,05,06,992.31
2011,11,22,05,07,992.30
2011,11,22,05,08,992.14
2011,11,22,05,09,992.22
2011,11,22,05,10,992.31
2011,11,22,05,11,992.38
2011,11,22,05,12,992.38
2011,11,22,05,13,992.38
2011,11,22,05,14,992.42
2011,11,22,05,15,992.49
2011,11,22,05,16,992.62
2011,11,22,05,17,992.62
2011,11,22,05,18,992.66
2011,11,22,05,19,992.86
2011,11,22,05,20,992.93
2011,11,22,05,21,993.06
2011,11,22,05,22,992.99
2011,11,22,05,23,993.02
2011,11,22,05,24,992.86
2011,11,22,05,25,992.89
2011,11,22,05,26,992.89
2011,11,22,05,27,992.92
2011,11,22,05,28,992.95
2011,11,22,05,29,992.86
2011,11,22,05,30,992.85
2011,11,22,05,31,992.75
2011,11,22,05,32,992.75
2011,11,22,05,33,992.82
2011,11,22,05,34,992.79
2011,11,22,05,35,992.72
2011,11,22,05,36,992.70
2011,11,22,05,37,992.80
2011,11,22,05,38,993.07
2011,11,22,05,39,993.19
2011,11,22,05,40,993.19
2011,11,22,05,41,993.24
2011,11,22,05,42,993.37
2011,11,22,05,43,993.48
2011,11,22,05,44,993.60
2011,11,22,05,45,993.70
2011,11,22,05,46,993.74
2011,11,22,05,47,993.84
2011,11,22,05,48,993.94
2011,11,22,05,49,993.95
2011,11,22,05,50,994.07
2011,11,22,05,51,994.11
2011,11,22,05,52,994.18
2011,11,22,05,53,994.21
2011,11,22,05,54,994.21
2011,11,22,05,55,994.17
2011,11,22,05,56,994.06
2011,11,22,05,57,993.91
2011,11,22,05,58,993.87
2011,11,22,05,59,993.93
2011,11,22,06,00,993.84
2011,11,22,06,01,993.74
2011,11,22,06,02,993.66
2011,11,22,06,03,993.53
2011,11,22,06,04,993.53
2011,11,22,06,05,993.50
2011,11,22,06,06,993.47
2011,11,22,06,07,993.54
2011,11,22,06,08,993.67
2011,11,22,06,09,993.74
2011,11,22,06,10,993.80
2011,11,22,06,11,993.87
2011,11,22,06,12,993.84
2011,11,22,06,13,993.97
2011,11,22,06,14,994.11
2011,11,22,06,15,994.25
2011,11,22,06,16,994.41
2011,11,22,06,17,994.41
2011,11,22,06,18,994.45
2011,11,22,06,19,994.55
2011,11,22,06,20,994.51
2011,11,22,06,21,994.35
2011,11,22,06,22,994.31
2011,11,22,06,23,994.35
2011,11,22,06,24,994.28
2011,11,22,06,25,994.14
2011,11,22,06,26,994.11
2011,11,22,06,27,994.18
2011,11,22,06,28,994.11
2011,11,22,06,29,994.18
2011,11,22,06,30,994.11
2011,11,22,06,31,994.19
2011,11,22,06,32,994.32
2011,11,22,06,33,994.48
2011,11,22,06,34,994.45
2011,11,22,06,35,994.48
2011,11,22,06,36,994.45
2011,11,22,06,37,994.52
2011,11,22,06,38,994.55
2011,11,22,06,39,994.47
2011,11,22,06,40,994.35
2011,11,22,06,41,994.28
2011,11,22,06,42,994.18
2011,11,22,06,43,994.21
2011,11,22,06,44,994.31
2011,11,22,06,45,994.35
2011,11,22,06,46,994.38
2011,11,22,06,47,994.48
2011,11,22,06,48,994.62
2011,11,22,06,49,994.75
2011,11,22,06,50,994.83
2011,11,22,06,51,995.02
2011,11,22,06,52,995.12
2011,11,22,06,53,995.27
2011,11,22,06,54,995.40
2011,11,22,06,55,995.33
2011,11,22,06,56,995.26
2011,11,22,06,57,995.26
2011,11,22,06,58,995.19
2011,11,22,06,59,995.23
2011,11,22,07,00,995.16
2011,11,22,07,01,995.09
2011,11,22,07,02,995.09
2011,11,22,07,03,995.09
2011,11,22,07,04,994.99
2011,11,22,07,05,994.96
2011,11,22,07,06,994.92
2011,11,22,07,07,994.85
2011,11,22,07,08,994.82
2011,11,22,07,09,994.82
2011,11,22,07,10,994.79
2011,11,22,07,11,994.72
2011,11,22,07,12,994.76
2011,11,22,07,13,994.96
2011,11,22,07,14,995.02
2011,11,22,07,15,995.02
2011,11,22,07,16,995.12
2011,11,22,07,17,995.16
2011,11,22,07,18,995.22
2011,11,22,07,19,995.02
2011,11,22,07,20,995.06
2011,11,22,07,21,995.03
2011,11,22,07,22,995.11
2011,11,22,07,23,995.03
2011,11,22,07,24,995.16
2011,11,22,07,25,995.16
2011,11,22,07,26,995.07
2011,11,22,07,27,995.19
2011,11,22,07,28,995.29
2011,11,22,07,29,995.27
2011,11,22,07,30,995.43
2011,11,22,07,31,995.40
2011,11,22,07,32,995.43
2011,11,22,07,33,995.50
2011,11,22,07,34,995.46
2011,11,22,07,35,995.43
2011,11,22,07,36,995.43
2011,11,22,07,37,995.45
2011,11,22,07,38,995.33
2011,11,22,07,39,995.50
2011,11,22,07,40,995.53
2011,11,22,07,41,995.56
2011,11,22,07,42,995.60
2011,11,22,07,43,995.64
2011,11,22,07,44,995.80
2011,11,22,07,45,995.91
2011,11,22,07,46,996.11
2011,11,22,07,47,996.06
2011,11,22,07,48,995.90
2011,11,22,07,49,995.91
2011,11,22,07,50,996.01
2011,11,22,07,51,995.94
2011,11,22,07,52,996.04
2011,11,22,07,53,995.94
2011,11,22,07,54,995.97
2011,11,22,07,55,995.87
2011,11,22,07,56,995.87
2011,11,22,07,57,995.87
2011,11,22,07,58,995.84
2011,11,22,07,59,995.90
2011,11,22,08,00,995.94
2011,11,22,08,01,995.94
2011,11,22,08,02,995.90
2011,11,22,08,03,995.90
2011,11,22,08,04,996.01
2011,11,22,08,05,996.11
2011,11,22,08,06,996.04
2011,11,22,08,07,996.17
2011,11,22,08,08,996.15
2011,11,22,08,09,996.31
2011,11,22,08,10,996.28
2011,11,22,08,11,996.31
2011,11,22,08,12,996.28
2011,11,22,08,13,996.28
2011,11,22,08,14,996.32
2011,11,22,08,15,996.55
2011,11,22,08,16,996.46
2011,11,22,08,17,996.67
2011,11,22,08,18,996.59
2011,11,22,08,19,996.72
2011,11,22,08,20,996.68
2011,11,22,08,21,996.78
2011,11,22,08,22,996.92
2011,11,22,08,23,996.99
2011,11,22,08,24,997.02
2011,11,22,08,25,997.05
2011,11,22,08,26,997.05
2011,11,22,08,27,997.11
2011,11,22,08,28,997.02
2011,11,22,08,29,997.05
2011,11,22,08,30,997.05
2011,11,22,08,31,997.09
2011,11,22,08,32,997.09
2011,11,22,08,33,997.19
2011,11,22,08,34,997.22
2011,11,22,08,35,997.27
2011,11,22,08,36,997.39
2011,11,22,08,37,997.53
2011,11,22,08,38,997.53
2011,11,22,08,39,997.44
2011,11,22,08,40,997.62
2011,11,22,08,41,997.50
2011,11,22,08,42,997.63
2011,11,22,08,43,997.53
2011,11,22,08,44,997.66
2011,11,22,08,45,997.60
2011,11,22,08,46,997.70
2011,11,22,08,47,997.73
2011,11,22,08,48,997.70
2011,11,22,08,49,997.83
2011,11,22,08,50,997.83
2011,11,22,08,51,997.90
2011,11,22,08,52,997.78
2011,11,22,08,53,997.97
2011,11,22,08,54,997.97
2011,11,22,08,55,998.00
2011,11,22,08,56,997.94
2011,11,22,08,57,998.04
2011,11,22,08,58,998.07
2011,11,22,08,59,998.10
2011,11,22,09,00,998.10
2011,11,22,09,01,998.10
2011,11,22,09,02,998.17
2011,11,22,09,03,998.21
2011,11,22,09,04,998.17
2011,11,22,09,05,998.24
2011,11,22,09,06,998.22
2011,11,22,09,07,998.31
2011,11,22,09,08,998.34
2011,11,22,09,09,998.41
2011,11,22,09,10,998.44
2011,11,22,09,11,998.48
2011,11,22,09,12,998.59
2011,11,22,09,13,998.71
2011,11,22,09,14,998.75
2011,11,22,09,15,998.78
2011,11,22,09,16,998.85
2011,11,22,09,17,998.88
2011,11,22,09,18,998.89
2011,11,22,09,19,998.99
2011,11,22,09,20,999.05
2011,11,22,09,21,999.02
2011,11,22,09,22,999.09
2011,11,22,09,23,999.12
2011,11,22,09,24,999.15
2011,11,22,09,25,999.19
2011,11,22,09,26,999.22
2011,11,22,09,27,999.22
2011,11,22,09,28,999.29
2011,11,22,09,29,999.36
2011,11,22,09,30,999.39
2011,11,22,09,31,999.43
2011,11,22,09,32,999.49
2011,11,22,09,33,999.53
2011,11,22,09,34,999.59
2011,11,22,09,35,999.63
2011,11,22,09,36,999.59
2011,11,22,09,37,999.66
2011,11,22,09,38,999.66
2011,11,22,09,39,999.66
2011,11,22,09,40,999.73
2011,11,22,09,41,999.80
2011,11,22,09,42,999.76
2011,11,22,09,43,999.83
2011,11,22,09,44,999.87
2011,11,22,09,45,999.87
2011,11,22,09,46,999.80
2011,11,22,09,47,999.83
2011,11,22,09,48,999.87
2011,11,22,09,49,999.80
2011,11,22,09,50,999.87
2011,11,22,09,51,999.87
2011,11,22,09,52,999.90
2011,11,22,09,53,999.91
2011,11,22,09,54,1000.00
2011,11,22,09,55,999.97
2011,11,22,09,56,999.97
2011,11,22,09,57,999.90
2011,11,22,09,58,999.93
2011,11,22,09,59,999.97
2011,11,22,10,00,999.97
2011,11,22,10,01,999.97
2011,11,22,10,02,1000.00
2011,11,22,10,03,1000.00
2011,11,22,10,04,1000.07
2011,11,22,10,05,1000.14
2011,11,22,10,06,1000.17
2011,11,22,10,07,1000.14
2011,11,22,10,08,1000.17
2011,11,22,10,09,1000.20
2011,11,22,10,10,1000.24
2011,11,22,10,11,1000.20
2011,11,22,10,12,1000.17
2011,11,22,10,13,1000.24
2011,11,22,10,14,1000.27
2011,11,22,10,15,1000.27
2011,11,22,10,16,1000.27
2011,11,22,10,17,1000.27
2011,11,22,10,18,1000.27
2011,11,22,10,19,1000.24
2011,11,22,10,20,1000.24
2011,11,22,10,21,1000.27
2011,11,22,10,22,1000.31
2011,11,22,10,23,1000.34
2011,11,22,10,24,1000.34
2011,11,22,10,25,1000.37
2011,11,22,10,26,1000.44
2011,11,22,10,27,1000.48
2011,11,22,10,28,1000.51
2011,11,22,11,29,1000.91
2011,11,22,11,30,1000.88
2011,11,22,11,31,1000.88
2011,11,22,11,32,1000.88
2011,11,22,11,33,1000.95
2011,11,22,11,34,1000.98
2011,11,22,11,35,1000.98
2011,11,22,11,36,1001.05
2011,11,22,11,37,1001.12
2011,11,22,11,38,1001.15
2011,11,22,11,39,1001.12
2011,11,22,11,40,1001.19
2011,11,22,11,41,1001.19
2011,11,22,11,42,1001.22
2011,11,22,11,43,1001.25
2011,11,22,11,44,1001.29
2011,11,22,11,45,1001.39
2011,11,22,11,46,1001.39
2011,11,22,11,47,1001.42
2011,11,22,11,48,1001.49
2011,11,22,11,49,1001.49
2011,11,22,11,50,1001.52
2011,11,22,11,51,1001.56
2011,11,22,11,52,1001.59
2011,11,22,11,53,1001.52
2011,11,22,11,54,1001.56
2011,11,22,11,55,1001.56
2011,11,22,11,56,1001.59
2011,11,22,11,57,1001.56
2011,11,22,11,58,1001.49
2011,11,22,11,59,1001.46
2011,11,22,12,00,1001.42
2011,11,22,12,01,1001.39
2011,11,22,12,02,1001.42
2011,11,22,12,03,1001.42
2011,11,22,12,04,1001.42
2011,11,22,12,05,1001.36
2011,11,22,12,06,1001.29
2011,11,22,12,07,1001.32
2011,11,22,12,08,1001.32
2011,11,22,12,09,1001.36
2011,11,22,12,10,1001.36
2011,11,22,12,11,1001.32
2011,11,22,12,12,1001.39
2011,11,22,12,13,1001.36
2011,11,22,12,14,1001.46
2011,11,22,12,15,1001.52
2011,11,22,12,16,1001.52
2011,11,22,12,17,1001.59
2011,11,22,12,18,1001.63
2011,11,22,12,19,1001.63
2011,11,22,12,20,1001.59
2011,11,22,12,21,1001.63
2011,11,22,12,22,1001.63
2011,11,22,12,23,1001.59
2011,11,22,12,24,1001.49
2011,11,22,12,25,1001.49
2011,11,22,12,26,1001.46
2011,11,22,12,27,1001.39
2011,11,22,12,28,1001.39
2011,11,22,12,29,1001.46
2011,11,22,12,30,1001.39
2011,11,22,12,31,1001.39
2011,11,22,12,32,1001.32
2011,11,22,12,33,1001.25
2011,11,22,12,34,1001.22
2011,11,22,12,35,1001.22
2011,11,22,12,36,1001.19
2011,11,22,12,37,1001.15
2011,11,22,12,38,1001.15
2011,11,22,12,39,1001.12
2011,11,22,12,40,1001.19
2011,11,22,12,41,1001.19
2011,11,22,12,42,1001.16
2011,11,22,12,43,1001.25
2011,11,22,12,44,1001.25
2011,11,22,12,45,1001.22
2011,11,22,12,46,1001.19
2011,11,22,12,47,1001.19
2011,11,22,12,48,1001.22
2011,11,22,12,49,1001.15
2011,11,22,12,50,1001.15
2011,11,22,12,51,1001.08
2011,11,22,12,52,1001.15
2011,11,22,12,53,1001.15
2011,11,22,12,54,1001.08
2011,11,22,12,55,1001.15
2011,11,22,12,56,1001.15
2011,11,22,12,57,1001.15
2011,11,22,12,58,1001.19
2011,11,22,12,59,1001.19
2011,11,22,13,00,1001.19
2011,11,22,13,01,1001.19
2011,11,22,13,02,1001.19
2011,11,22,13,03,1001.25
2011,11,22,13,04,1001.29
2011,11,22,13,05,1001.29
2011,11,22,13,06,1001.32
2011,11,22,13,07,1001.32
2011,11,22,13,08,1001.25
2011,11,22,13,09,1001.22
2011,11,22,13,10,1001.19
2011,11,22,13,11,1001.15
2011,11,22,13,12,1001.19
2011,11,22,13,13,1001.15
2011,11,22,13,14,1001.15
2011,11,22,13,15,1001.15
2011,11,22,13,16,1001.08
2011,11,22,13,17,1001.12
2011,11,22,13,18,1001.08
2011,11,22,13,19,1001.15
2011,11,22,13,20,1001.19
2011,11,22,13,21,1001.19
2011,11,22,13,22,1001.12
2011,11,22,13,23,1001.15
2011,11,22,13,24,1001.15
2011,11,22,13,25,1001.12
2011,11,22,13,26,1001.19
2011,11,22,13,27,1001.15
2011,11,22,13,28,1001.15
2011,11,22,13,29,1001.19
2011,11,22,13,30,1001.19
2011,11,22,13,31,1001.19
2011,11,22,13,32,1001.19
2011,11,22,13,33,1001.19
2011,11,22,13,34,1001.19
2011,11,22,13,35,1001.15
2011,11,22,13,36,1001.15
2011,11,22,13,37,1001.15
2011,11,22,13,38,1001.15
2011,11,22,13,39,1001.19
2011,11,22,13,40,1001.22
2011,11,22,13,41,1001.19
2011,11,22,13,42,1001.22
2011,11,22,13,43,1001.22
2011,11,22,13,44,1001.15
2011,11,22,13,45,1001.22
2011,11,22,13,46,1001.19
2011,11,22,13,47,1001.15
2011,11,22,13,48,1001.19
2011,11,22,13,49,1001.19
2011,11,22,13,50,1001.19
2011,11,22,13,51,1001.12
2011,11,22,13,52,1001.08
2011,11,22,13,53,1001.05
2011,11,22,13,54,1001.05
2011,11,22,13,55,1001.02
2011,11,22,13,56,1001.02
2011,11,22,13,57,1000.95
2011,11,22,13,58,1000.95
2011,11,22,13,59,1000.95
2011,11,22,14,00,1000.92
2011,11,22,14,01,1000.92
2011,11,22,14,02,1000.92
2011,11,22,14,03,1000.88
2011,11,22,14,04,1000.78
2011,11,22,14,05,1000.85
2011,11,22,14,06,1000.88
2011,11,22,14,07,1000.85
2011,11,22,14,08,1000.81
2011,11,22,14,09,1000.81
2011,11,22,14,10,1000.81
2011,11,22,14,11,1000.78
2011,11,22,14,12,1000.81
2011,11,22,14,13,1000.85
2011,11,22,14,14,1000.85
2011,11,22,14,15,1000.92
2011,11,22,14,16,1000.85
2011,11,22,14,17,1000.88
2011,11,22,14,18,1000.92
2011,11,22,14,19,1000.88
2011,11,22,14,20,1000.95
2011,11,22,14,21,1000.92
2011,11,22,14,22,1000.88
2011,11,22,14,23,1000.85
2011,11,22,14,24,1000.92
2011,11,22,14,25,1000.95
2011,11,22,14,26,1000.85
2011,11,22,14,27,1000.92
2011,11,22,14,28,1000.85
2011,11,22,14,29,1000.85
2011,11,22,14,30,1000.85
2011,11,22,14,31,1000.88
2011,11,22,14,32,1000.92
2011,11,22,14,33,1000.88
2011,11,22,14,34,1000.81
2011,11,22,14,35,1000.78
2011,11,22,14,36,1000.75
2011,11,22,14,37,1000.78
2011,11,22,14,38,1000.78
2011,11,22,14,39,1000.80
2011,11,22,14,40,1000.71
2011,11,22,14,41,1000.68
2011,11,22,14,42,1000.71
2011,11,22,14,43,1000.71
2011,11,22,14,44,1000.75
2011,11,22,14,45,1000.75
2011,11,22,14,46,1000.80
2011,11,22,14,47,1000.68
2011,11,22,14,48,1000.64
2011,11,22,14,49,1000.64
2011,11,22,14,50,1000.64
2011,11,22,14,51,1000.61
2011,11,22,14,52,1000.61
2011,11,22,14,53,1000.58
2011,11,22,14,54,1000.64
2011,11,22,14,55,1000.71
2011,11,22,14,56,1000.71
2011,11,22,14,57,1000.64
2011,11,22,14,58,1000.54
2011,11,22,14,59,1000.58
2011,11,22,15,00,1000.64
2011,11,22,15,01,1000.50
2011,11,22,15,02,1000.37
2011,11,22,15,03,1000.37
2011,11,22,15,04,1000.31
2011,11,22,15,05,1000.27
2011,11,22,15,06,1000.31
2011,11,22,15,07,1000.44
2011,11,22,15,08,1000.53
2011,11,22,15,09,1000.44
2011,11,22,15,10,1000.51
2011,11,22,15,11,1000.44
2011,11,22,15,12,1000.41
2011,11,22,15,13,1000.48
2011,11,22,15,14,1000.44
2011,11,22,15,15,1000.51
2011,11,22,15,16,1000.58
2011,11,22,15,17,1000.61
2011,11,22,15,18,1000.71
2011,11,22,15,19,1000.75
2011,11,22,15,20,1000.61
2011,11,22,15,21,1000.61
2011,11,22,15,22,1000.58
2011,11,22,15,23,1000.54
2011,11,22,15,24,1000.54
2011,11,22,15,25,1000.51
2011,11,22,15,26,1000.58
2011,11,22,15,27,1000.57
2011,11,22,15,28,1000.41
2011,11,22,15,29,1000.41
2011,11,22,15,30,1000.44
2011,11,22,15,31,1000.44
2011,11,22,15,32,1000.51
2011,11,22,15,33,1000.48
2011,11,22,15,34,1000.44
2011,11,22,15,35,1000.41
2011,11,22,15,36,1000.41
2011,11,22,15,37,1000.34
2011,11,22,15,38,1000.34
2011,11,22,15,39,1000.41
2011,11,22,15,40,1000.44
2011,11,22,15,41,1000.34
2011,11,22,15,42,1000.44
2011,11,22,15,43,1000.48
2011,11,22,15,44,1000.44
2011,11,22,15,45,1000.41
2011,11,22,15,46,1000.37
2011,11,22,15,47,1000.34
2011,11,22,15,48,1000.31
2011,11,22,15,49,1000.34
2011,11,22,15,50,1000.37
2011,11,22,15,51,1000.34
2011,11,22,15,52,1000.41
2011,11,22,15,53,1000.48
2011,11,22,15,54,1000.37
2011,11,22,15,55,1000.34
2011,11,22,15,56,1000.34
2011,11,22,15,57,1000.37
2011,11,22,15,58,1000.34
2011,11,22,15,59,1000.27
2011,11,22,16,00,1000.27
2011,11,22,16,01,1000.27
2011,11,22,16,02,1000.20
2011,11,22,16,03,1000.27
2011,11,22,16,04,1000.24
2011,11,22,16,05,1000.17
2011,11,22,16,06,1000.24
2011,11,22,16,07,1000.20
2011,11,22,16,08,1000.17
2011,11,22,16,09,1000.14
2011,11,22,16,10,1000.18
2011,11,22,16,11,1000.31
2011,11,22,16,12,1000.24
2011,11,22,16,13,1000.24
2011,11,22,16,14,1000.17
2011,11,22,16,15,1000.17
2011,11,22,16,16,1000.17
2011,11,22,16,17,1000.17
2011,11,22,16,18,1000.17
2011,11,22,16,19,1000.17
2011,11,22,16,20,1000.20
2011,11,22,16,21,1000.17
2011,11,22,16,22,1000.24
2011,11,22,16,23,1000.20
2011,11,22,16,24,1000.17
2011,11,22,16,25,1000.24
2011,11,22,16,26,1000.20
2011,11,22,16,27,1000.17
2011,11,22,16,28,1000.24
2011,11,22,16,29,1000.14
2011,11,22,16,30,1000.17
2011,11,22,16,31,1000.14
2011,11,22,16,32,1000.17
2011,11,22,16,33,1000.14
2011,11,22,16,34,1000.20
2011,11,22,16,35,1000.17
2011,11,22,16,36,1000.20
2011,11,22,16,37,1000.24
2011,11,22,16,38,1000.20
2011,11,22,16,39,1000.24
2011,11,22,16,40,1000.17
2011,11,22,16,41,1000.20
2011,11,22,16,42,1000.24
2011,11,22,16,43,1000.20
2011,11,22,16,44,1000.17
2011,11,22,16,45,1000.20
2011,11,22,16,46,1000.20
2011,11,22,16,47,1000.20
2011,11,22,16,48,1000.24
2011,11,22,16,49,1000.20
2011,11,22,16,50,1000.14
2011,11,22,16,51,1000.17
2011,11,22,16,52,1000.20
2011,11,22,16,53,1000.24
2011,11,22,16,54,1000.27
2011,11,22,16,55,1000.27
2011,11,22,16,56,1000.17
2011,11,22,16,57,1000.20
2011,11,22,16,58,1000.14
2011,11,22,16,59,1000.20
2011,11,22,17,00,1000.20
2011,11,22,17,01,1000.31
2011,11,22,17,02,1000.24
2011,11,22,17,03,1000.27
2011,11,22,17,04,1000.27
2011,11,22,17,05,1000.20
2011,11,22,17,06,1000.17
2011,11,22,17,07,1000.24
2011,11,22,17,08,1000.20
2011,11,22,17,09,1000.10
2011,11,22,17,10,1000.20
2011,11,22,17,11,1000.14
2011,11,22,17,12,1000.14
2011,11,22,17,13,1000.14
2011,11,22,17,14,1000.10
2011,11,22,17,15,1000.03
2011,11,22,17,16,1000.10
2011,11,22,17,17,1000.07
2011,11,22,17,18,999.97
2011,11,22,17,19,1000.00
2011,11,22,17,20,999.93
2011,11,22,17,21,999.97
2011,11,22,17,22,999.93
2011,11,22,17,23,999.93
2011,11,22,17,24,999.87
2011,11,22,17,25,999.90